Rochester, Indiana, United States (46975)
Lat: 41.06N, Lon: 86.22W
Wx Zone: INZ015
Local Info
Past Weather Observations for Today

NOTE: This archive is for the closest National Weather Service station to Rochester. Information may differ from the station used for current weather conditions.

Click here for Long-term Archive

Time Weather Temperature Dewpoint Humidity Pressure Winds Precip Visibility
23:35
Overcast
77°F / 25°C 70°F / 21°C 79% 30.01 in
(1016 mb)
SSW 6.9 mph
(SSW 11 kph)
- 10SM
23:15
Overcast
77°F / 25°C 70°F / 21°C 79% 30.01 in
(1016 mb)
SSW 6.9 mph
(SSW 11 kph)
- 10SM
22:55
Overcast
79°F / 26°C 70°F / 21°C 74% 30.01 in
(1016 mb)
SSW 8.1 mph
(SSW 13 kph)
- 10SM
22:35
Overcast
79°F / 26°C 70°F / 21°C 74% 30.01 in
(1016 mb)
SSW 8.1 mph
(SSW 13 kph)
- 10SM
22:15
Overcast
79°F / 26°C 70°F / 21°C 74% 30.01 in
(1016 mb)
SW 4.6 mph
(SW 7 kph)
- 10SM
21:55
Partly Cloudy
79°F / 26°C 70°F / 21°C 74% 30.01 in
(1016 mb)
SSW 5.8 mph
(SSW 9 kph)
- 10SM
21:35
Clear
79°F / 26°C 70°F / 21°C 74% 30.01 in
(1016 mb)
SW 4.6 mph
(SW 7 kph)
- 10SM
21:15
Clear
79°F / 26°C 70°F / 21°C 74% 30.01 in
(1016 mb)
SW 5.8 mph
(SW 9 kph)
- 10SM
20:55
Clear
79°F / 26°C 70°F / 21°C 74% 30.01 in
(1016 mb)
SW 3.5 mph
(SW 6 kph)
- 10SM
20:35
Clear
79°F / 26°C 70°F / 21°C 74% 30.01 in
(1016 mb)
SW 3.5 mph
(SW 6 kph)
- 10SM
20:15
Partly Cloudy
81°F / 27°C 70°F / 21°C 70% 30.01 in
(1016 mb)
SW 5.8 mph
(SW 9 kph)
- 10SM
19:55
Partly Cloudy
81°F / 27°C 70°F / 21°C 70% 30.01 in
(1016 mb)
SW 4.6 mph
(SW 7 kph)
- 10SM
19:35
Partly Cloudy
81°F / 27°C 68°F / 20°C 66% 30.01 in
(1016 mb)
SW 4.6 mph
(SW 7 kph)
- 10SM
19:15
Partly Cloudy
82°F / 28°C 68°F / 20°C 62% 30.01 in
(1016 mb)
SSW 10.4 mph
(SSW 17 kph)
- 10SM
18:55
Partly Cloudy
82°F / 28°C 68°F / 20°C 62% 30.01 in
(1016 mb)
SSW 8.1 mph
(SSW 13 kph)
- 10SM
18:35
Clear
82°F / 28°C 68°F / 20°C 62% 30.01 in
(1016 mb)
SSW 9.2 mph
(SSW 15 kph)
- 10SM
18:15
Clear
84°F / 29°C 66°F / 19°C 55% 30.01 in
(1016 mb)
SW 6.9 mph
(SW 11 kph)
- 10SM
17:55
Clear
86°F / 30°C 68°F / 20°C 55% 30.01 in
(1016 mb)
SW 6.9 mph
(SW 11 kph)
- 10SM
17:35
Clear
86°F / 30°C 68°F / 20°C 55% 30.01 in
(1016 mb)
SW 6.9 mph
(SW 11 kph)
- 10SM
17:15
Clear
86°F / 30°C 66°F / 19°C 52% 30.01 in
(1016 mb)
SW 8.1 mph
(SW 13 kph)
- 10SM
16:55
Clear
86°F / 30°C 68°F / 20°C 55% 30.01 in
(1016 mb)
SW 8.1 mph
(SW 13 kph)
- 10SM
16:35
Clear
86°F / 30°C 68°F / 20°C 55% 30.01 in
(1016 mb)
SW 6.9 mph
(SW 11 kph)
- 10SM
16:15
Clear
86°F / 30°C 66°F / 19°C 52% 30.01 in
(1016 mb)
SSW 8.1 mph
(SSW 13 kph)
- 10SM
15:55
Clear
86°F / 30°C 66°F / 19°C 52% 30.01 in
(1016 mb)
SSE 6.9 mph
(SSE 11 kph)
- 10SM
15:35
Clear
86°F / 30°C 66°F / 19°C 52% 30.04 in
(1017 mb)
SW 8.1 mph
(SW 13 kph)
- 10SM
15:15
Clear
86°F / 30°C 68°F / 20°C 55% 30.04 in
(1017 mb)
SW 8.1 mph
(SW 13 kph)
- 10SM
14:55
Clear
86°F / 30°C 66°F / 19°C 52% 30.04 in
(1017 mb)
SW 6.9 mph
(SW 11 kph)
- 10SM
14:35
Clear
86°F / 30°C 66°F / 19°C 52% 30.04 in
(1017 mb)
SSE 6.9 mph
(SSE 11 kph)
- 10SM
14:15
Partly Cloudy
86°F / 30°C 68°F / 20°C 55% 30.06 in
(1018 mb)
SSW 10.4 mph
(SSW 17 kph)
- 10SM
13:55
Partly Cloudy
86°F / 30°C 68°F / 20°C 55% 30.06 in
(1018 mb)
SW 8.1 mph
(SW 13 kph)
- 10SM
13:35
Mostly Cloudy
86°F / 30°C 68°F / 20°C 55% 30.06 in
(1018 mb)
SSW 10.4 mph
(SSW 17 kph)
- 10SM
13:15
Mostly Cloudy
84°F / 29°C 68°F / 20°C 58% 30.06 in
(1018 mb)
SW 8.1 mph
(SW 13 kph)
- 10SM
12:55
Partly Cloudy
86°F / 30°C 66°F / 19°C 52% 30.06 in
(1018 mb)
SSW 8.1 mph
(SSW 13 kph)
- 10SM
12:35
Partly Cloudy
84°F / 29°C 66°F / 19°C 55% 30.06 in
(1018 mb)
SW 9.2 mph
(SW 15 kph)
- 10SM
12:15
Clear
82°F / 28°C 66°F / 19°C 58% 30.06 in
(1018 mb)
SW 8.1 mph
(SW 13 kph)
- 10SM
11:55
Clear
82°F / 28°C 66°F / 19°C 58% 30.06 in
(1018 mb)
SSW 11.5 mph
(SSW 19 kph)
- 10SM
11:35
Clear
82°F / 28°C 64°F / 18°C 55% 30.06 in
(1018 mb)
SW 6.9 mph
(SW 11 kph)
- 10SM
11:15
Clear
82°F / 28°C 64°F / 18°C 55% 30.06 in
(1018 mb)
SW 10.4 mph
(SW 17 kph)
- 10SM
10:55
Clear
81°F / 27°C 66°F / 19°C 62% 30.06 in
(1018 mb)
SW 9.2 mph
(SW 15 kph)
- 10SM
10:35
Clear
81°F / 27°C 64°F / 18°C 58% 30.06 in
(1018 mb)
SW 8.1 mph
(SW 13 kph)
- 10SM
10:15
Clear
81°F / 27°C 64°F / 18°C 58% 30.06 in
(1018 mb)
SW 6.9 mph
(SW 11 kph)
- 10SM
09:55
Clear
79°F / 26°C 66°F / 19°C 65% 30.09 in
(1019 mb)
SSE 6.9 mph
(SSE 11 kph)
- 10SM
09:35
Clear
79°F / 26°C 64°F / 18°C 61% 30.09 in
(1019 mb)
S 6.9 mph
(S 11 kph)
- 10SM
09:15
Clear
79°F / 26°C 66°F / 19°C 65% 30.09 in
(1019 mb)
SW 4.6 mph
(SW 7 kph)
- 10SM
08:55
Clear
77°F / 25°C 64°F / 18°C 65% 30.12 in
(1020 mb)
SW 3.5 mph
(SW 6 kph)
- 10SM
08:35
Clear
75°F / 24°C 64°F / 18°C 69% 30.12 in
(1020 mb)
SW 3.5 mph
(SW 6 kph)
- 10SM
08:15
Clear
73°F / 23°C 64°F / 18°C 74% 30.12 in
(1020 mb)
SW 3.5 mph
(SW 6 kph)
- 10SM
07:55
Clear
72°F / 22°C 64°F / 18°C 78% 30.12 in
(1020 mb)
SW 3.5 mph
(SW 6 kph)
- 10SM
07:35
Clear
72°F / 22°C 64°F / 18°C 78% 30.12 in
(1020 mb)
Calm - 10SM
07:15
Clear
70°F / 21°C 63°F / 17°C 78% 30.12 in
(1020 mb)
Calm - 7SM
06:55
Clear
68°F / 20°C 63°F / 17°C 83% 30.12 in
(1020 mb)
Calm - 7SM
06:35
Clear
64°F / 18°C 63°F / 17°C 94% 30.12 in
(1020 mb)
Calm - 7SM
05:15
Clear
61°F / 16°C 59°F / 15°C 94% 30.12 in
(1020 mb)
Calm - 7SM
04:55
Clear
Fog And Mist
61°F / 16°C 61°F / 16°C 100% 30.12 in
(1020 mb)
Calm - 5SM
04:35
Clear
Fog And Mist
61°F / 16°C 61°F / 16°C 100% 30.09 in
(1019 mb)
Calm - 5SM
04:15
Clear
Fog And Mist
61°F / 16°C 61°F / 16°C 100% 30.09 in
(1019 mb)
Calm - 4SM
03:55
Clear
Fog And Mist
61°F / 16°C 61°F / 16°C 100% 30.09 in
(1019 mb)
Calm - 5SM
03:35
Clear
Fog And Mist
61°F / 16°C 61°F / 16°C 100% 30.09 in
(1019 mb)
Calm - 5SM
03:15
Clear
Fog And Mist
61°F / 16°C 61°F / 16°C 100% 30.09 in
(1019 mb)
Calm - 5SM
02:55
Clear
Fog And Mist
63°F / 17°C 61°F / 16°C 94% 30.09 in
(1019 mb)
Calm - 4SM
02:35
Clear
Fog And Mist
63°F / 17°C 61°F / 16°C 94% 30.09 in
(1019 mb)
Calm - 3SM
02:15
Clear
Fog And Mist
63°F / 17°C 61°F / 16°C 94% 30.09 in
(1019 mb)
Calm - 5SM
01:55
Clear
Fog And Mist
63°F / 17°C 63°F / 17°C 100% 30.09 in
(1019 mb)
Calm - 5SM
01:35
Clear
64°F / 18°C 63°F / 17°C 94% 30.09 in
(1019 mb)
Calm - 7SM
01:15
Clear
Fog And Mist
61°F / 16°C 61°F / 16°C 100% 30.09 in
(1019 mb)
Calm - 5SM
00:55
Clear
Fog And Mist
63°F / 17°C 63°F / 17°C 100% 30.09 in
(1019 mb)
Calm - 5SM
00:35
Clear
63°F / 17°C 63°F / 17°C 100% 30.09 in
(1019 mb)
Calm - 7SM
00:15
Clear
64°F / 18°C 63°F / 17°C 94% 30.09 in
(1019 mb)
Calm - 7SM
Time Weather Temperature Dewpoint Humidity Pressure Winds Precip Visibility


Weather for websites

WeatherForYou.com, LLC is not responsible for any damages or problems caused by this service. Current weather conditions are obtained from the closest station including government and personal stations which may have varying degrees of accuracy. Weather forecasts are derived from the NOAA NDFD. Like all things, this site belongs to Jesus Christ... He just trusts me to maintain it. If you have any questions or comments email webmaster@weatherforyou.com

Copyright © 2014, WeatherForYou.com LLC. All rights reserved.